Waarnemingen

Advertentie
Mijn weer
Oviedo, Spanje (8015): temperatuur & dauwpunt: 13.07.2019 08:00:00 - 19.07.2019 08:00:00 (CEST)Oviedo, Spanje (8015): windsnelheid: 13.07.2019 08:00:00 - 19.07.2019 08:00:00 (CEST)Oviedo, Spanje (8015): windrichting: 13.07.2019 08:00:00 - 19.07.2019 08:00:00 (CEST)Oviedo, Spanje (8015): luchtdruk: 13.07.2019 08:00:00 - 19.07.2019 08:00:00 (CEST)Oviedo, Spanje (8015): zicht: 13.07.2019 08:00:00 - 19.07.2019 08:00:00 (CEST)Oviedo, Spanje (8015): neerslag: 13.07.2019 08:00:00 - 19.07.2019 08:00:00 (CEST)
Datum & Tijd tt [°C] td [°C] ff [km/u] ff [kn] dd ppp [hPa] vv [km] rr [mm]
19.07.2019 08:00:00 14,2 14,0 5 3 W 1017,3 0,2 -
19.07.2019 07:00:00 13,6 13,1 5 3 ZZW 1017,6 0,6 0,0
19.07.2019 06:00:00 14,1 13,1 8 4 Z 1017,6 9 0,0
19.07.2019 05:00:00 14,7 13,7 4 2 Z 1018,0 11 -
19.07.2019 04:00:00 14,7 13,7 5 3 Z 1018,6 11 0,0
19.07.2019 03:00:00 15,2 14,2 5 3 Z 1019,0 11 0,0
19.07.2019 02:00:00 15,7 14,4 5 3 Z 1019,5 11 -
19.07.2019 01:00:00 16,5 15,0 4 2 Z 1019,5 9 0,0
19.07.2019 00:00:00 17,1 15,3 4 2 NO 1019,5 11 0,0
18.07.2019 23:00:00 17,6 15,4 5 3 O 1019,4 16 -
18.07.2019 22:00:00 18,6 14,9 8 4 ONO 1019,1 20 0,0
18.07.2019 21:00:00 20,3 13,7 9 5 NO 1018,6 0,3 0,0
18.07.2019 20:00:00 21,9 13,0 8 4 ONO 1018,0 20 -
18.07.2019 19:00:00 22,8 12,4 9 5 ONO 1017,8 20 0,0
18.07.2019 18:00:00 23,3 13,7 11 6 NO 1017,8 20 0,0
18.07.2019 17:00:00 24,2 15,4 13 7 ONO 1017,8 20 -
18.07.2019 16:00:00 24,5 12,8 9 5 N 1018,0 20 0,0
18.07.2019 15:00:00 23,8 13,1 5 3 NNO 1018,5 20 0,0
18.07.2019 14:00:00 22,3 14,2 5 3 N 1018,9 20 -
18.07.2019 13:00:00 20,5 14,6 4 2 WNW 1019,4 20 0,0
18.07.2019 12:00:00 18,5 15,0 4 2 W 1019,8 19 0,0
18.07.2019 11:00:00 16,5 14,1 4 2 NW 1020,2 14 -
18.07.2019 10:00:00 15,8 15,2 2 1 ZZW 1020,1 6 0,0
18.07.2019 09:00:00 14,6 14,6 2 1 WNW 1020,0 0,1 0,0
18.07.2019 08:00:00 14,4 14,4 4 2 Z 1019,6 0,1 -
18.07.2019 07:00:00 - - - - - - - -
18.07.2019 06:00:00 - - - - - - - -
18.07.2019 05:00:00 - - - - - - - -
18.07.2019 04:00:00 - - - - - - - -
18.07.2019 03:00:00 - - - - - - - -
18.07.2019 02:00:00 - - - - - - - -
18.07.2019 01:00:00 - - - - - - - -
18.07.2019 00:00:00 - - - - - - - -
17.07.2019 23:00:00 16,2 15,7 2 1 Z 1020,8 5 -
17.07.2019 22:00:00 - - - - - - - -
17.07.2019 21:00:00 - - - - - - - -
17.07.2019 20:00:00 16,8 16,2 4 2 WNW 1019,8 5 -
17.07.2019 19:00:00 17,2 15,7 5 3 NO 1019,7 14 0,2
17.07.2019 18:00:00 16,9 16,3 8 4 NO 1020,0 3,4 0,4
17.07.2019 17:00:00 17,1 16,1 5 3 NO 1019,9 1,0 -
17.07.2019 16:00:00 17,0 15,5 9 5 NNO 1019,9 6 0,2
17.07.2019 15:00:00 17,3 16,0 8 4 NNO 1019,6 12 0,0
17.07.2019 14:00:00 17,0 16,0 11 6 NNO 1019,7 10 -
17.07.2019 13:00:00 17,3 16,3 8 4 NNO 1019,5 13 0,0
17.07.2019 12:00:00 17,0 16,5 9 5 NO 1019,0 4,9 0,0
17.07.2019 11:00:00 16,9 16,3 11 6 NO 1019,1 6 -
17.07.2019 10:00:00 16,8 16,3 9 5 NO 1018,9 6 0,0
17.07.2019 09:00:00 16,6 16,4 4 2 O 1018,5 2,9 0,4
17.07.2019 08:00:00 16,7 16,7 5 3 O 1018,1 2,5 -
17.07.2019 07:00:00 16,5 16,3 8 4 ONO 1018,3 2,3 0,4
17.07.2019 06:00:00 16,7 16,5 11 6 NO 1017,9 5 0,0
17.07.2019 05:00:00 16,9 16,7 5 3 NNO 1017,9 3,3 -
17.07.2019 04:00:00 17,1 16,5 4 2 W 1018,2 3,1 0,0
17.07.2019 03:00:00 17,6 16,5 4 2 Z 1018,4 7 0,0
17.07.2019 02:00:00 17,8 16,3 2 1 Z 1018,7 13 -
17.07.2019 01:00:00 17,9 16,2 2 1 ZO 1018,8 19 0,0
17.07.2019 00:00:00 17,9 15,9 8 4 NO 1018,6 20 0,0
16.07.2019 23:00:00 17,5 16,2 2 1 W 1018,7 20 -
16.07.2019 22:00:00 17,9 16,1 4 2 N 1018,3 18 0,0
16.07.2019 21:00:00 18,6 15,8 5 3 NO 1018,2 20 0,0
16.07.2019 20:00:00 18,7 15,8 11 6 NO 1018,0 20 -
16.07.2019 19:00:00 19,1 15,6 9 5 NO 1017,8 20 0,0
16.07.2019 18:00:00 19,6 15,3 16 9 NO 1017,8 20 0,0
16.07.2019 17:00:00 20,9 15,4 15 8 NO 1017,7 20 -
16.07.2019 16:00:00 21,3 15,6 13 7 NO 1017,9 20 0,0
16.07.2019 15:00:00 20,7 15,3 13 7 NO 1018,0 20 0,0
16.07.2019 14:00:00 20,5 15,5 8 4 NNO 1018,3 20 -
16.07.2019 13:00:00 20,3 14,6 4 2 NW 1018,5 19 0,0
16.07.2019 12:00:00 20,3 15,1 5 3 ZZW 1018,5 20 0,0
16.07.2019 11:00:00 18,4 14,5 4 2 W 1019,0 20 -
16.07.2019 10:00:00 17,4 14,7 4 2 W 1018,9 18 0,0
16.07.2019 09:00:00 16,4 13,9 2 1 WNW 1018,9 19 0,0
16.07.2019 08:00:00 15,8 13,3 2 1 WNW 1018,6 15 -
16.07.2019 07:00:00 15,7 13,4 4 2 WNW 1018,7 19 0,0
16.07.2019 06:00:00 15,8 13,1 4 2 WNW 1018,4 19 0,0
16.07.2019 05:00:00 16,5 13,8 2 1 ZZW 1018,2 15 -
16.07.2019 04:00:00 17,1 13,4 2 1 ZW 1018,4 20 0,0
16.07.2019 03:00:00 17,9 13,4 4 2 W 1018,8 20 0,0
16.07.2019 02:00:00 19,4 12,6 5 3 NO 1018,7 20 -
16.07.2019 01:00:00 19,8 11,8 2 1 ONO 1018,9 20 0,0
16.07.2019 00:00:00 20,2 11,4 5 3 NO 1018,6 20 0,0
15.07.2019 23:00:00 20,6 12,0 5 3 ONO 1018,3 20 -
15.07.2019 22:00:00 21,4 12,8 4 2 ONO 1017,6 20 0,0
15.07.2019 21:00:00 22,0 14,1 9 5 NNO 1017,3 20 0,0
15.07.2019 20:00:00 22,8 15,4 16 9 NNO 1016,7 20 -
15.07.2019 19:00:00 23,2 17,2 13 7 NNO 1016,4 20 0,0
15.07.2019 18:00:00 23,4 16,9 15 8 NNO 1016,6 20 0,0
15.07.2019 17:00:00 23,8 15,0 18 10 NNO 1016,6 20 -
15.07.2019 16:00:00 24,9 15,5 16 9 NO 1016,2 20 0,0
15.07.2019 15:00:00 25,1 16,8 11 6 NO 1016,0 20 0,0
15.07.2019 14:00:00 24,5 15,4 11 6 NO 1016,1 20 -
15.07.2019 13:00:00 25,2 15,2 9 5 O 1016,3 19 0,0
15.07.2019 12:00:00 23,9 14,9 9 5 O 1016,7 20 0,0
15.07.2019 11:00:00 21,0 15,3 4 2 NNO 1016,9 12 -
15.07.2019 10:00:00 18,6 16,2 4 2 ZZW 1017,0 7 0,0
15.07.2019 09:00:00 16,7 15,9 4 2 Z 1017,1 1,5 0,0
15.07.2019 08:00:00 16,5 15,7 2 1 Z 1016,8 4,0 -
15.07.2019 07:00:00 16,2 15,4 2 1 Z 1016,8 4,3 0,0
15.07.2019 06:00:00 16,4 15,9 2 1 ZZW 1016,6 4,7 0,0
15.07.2019 05:00:00 16,5 16,2 4 2 WNW 1016,7 3,7 -
15.07.2019 04:00:00 16,5 16,0 4 2 W 1017,0 3,1 0,0
15.07.2019 03:00:00 16,7 15,7 4 2 WNW 1017,2 6 0,0
15.07.2019 02:00:00 17,6 15,6 2 1 NNW 1017,4 15 -
15.07.2019 01:00:00 18,2 16,9 4 2 ONO 1017,4 7 0,0
15.07.2019 00:00:00 18,7 16,7 5 3 ONO 1017,3 14 0,0
14.07.2019 23:00:00 20,1 14,2 5 3 O 1017,1 20 -
14.07.2019 22:00:00 21,2 14,1 4 2 ONO 1016,5 20 0,0
14.07.2019 21:00:00 21,8 14,4 5 3 O 1016,5 20 0,0
14.07.2019 20:00:00 22,5 15,1 5 3 ONO 1016,5 20 -
14.07.2019 19:00:00 23,0 15,8 8 4 ONO 1016,2 20 0,0
14.07.2019 18:00:00 23,0 16,3 13 7 NO 1016,4 20 0,0
14.07.2019 17:00:00 23,9 16,9 15 8 NO 1016,1 20 -
14.07.2019 16:00:00 23,2 17,4 18 10 NO 1015,9 20 0,0
14.07.2019 15:00:00 25,0 18,0 8 4 ONO 1015,7 20 0,0
14.07.2019 14:00:00 25,0 16,7 8 4 NO 1015,9 20 -
14.07.2019 13:00:00 23,1 16,9 5 3 WNW 1016,4 20 0,0
14.07.2019 12:00:00 22,0 16,9 2 1 OZO 1016,8 20 0,0
14.07.2019 11:00:00 20,7 17,5 4 2 ZZO 1016,9 10 -
14.07.2019 10:00:00 18,9 17,4 2 1 O 1017,1 18 0,0
14.07.2019 09:00:00 18,2 17,2 4 2 NNO 1016,9 10 0,0
14.07.2019 08:00:00 17,9 17,6 2 1 NW 1016,7 2,0 -
14.07.2019 07:00:00 17,7 17,4 5 3 Z 1016,9 4,2 0,0
14.07.2019 06:00:00 17,6 17,1 2 1 NW 1016,7 0,2 0,0
14.07.2019 05:00:00 17,7 17,2 4 2 O 1016,9 11 -
14.07.2019 04:00:00 17,6 17,3 2 1 W 1017,2 - 0,0
14.07.2019 03:00:00 17,9 16,9 2 1 OZO 1017,5 14 0,0
14.07.2019 02:00:00 18,1 17,5 5 3 NO 1017,8 11 -
14.07.2019 01:00:00 18,1 17,3 5 3 ONO 1018,4 - 0,0
14.07.2019 00:00:00 18,4 17,7 8 4 NO 1018,0 12 0,0
13.07.2019 23:00:00 18,5 17,8 9 5 ONO 1018,7 15 -
13.07.2019 22:00:00 18,6 17,8 5 3 ONO 1018,9 12 0,0
13.07.2019 21:00:00 18,6 17,9 8 4 NW 1018,6 3,3 0,0
13.07.2019 20:00:00 19,0 17,5 9 5 NNO 1018,2 17 -
13.07.2019 19:00:00 20,1 17,3 13 7 N 1017,0 20 0,0
13.07.2019 18:00:00 21,8 17,2 18 10 NO 1015,8 20 0,0
13.07.2019 17:00:00 23,2 17,4 22 12 NO 1014,9 20 -
13.07.2019 16:00:00 24,6 17,8 15 8 NO 1014,9 20 0,0
13.07.2019 15:00:00 25,3 16,2 13 7 O 1015,2 20 0,0
13.07.2019 14:00:00 25,4 16,3 13 7 O 1016,4 20 -
13.07.2019 13:00:00 24,1 16,4 9 5 O 1017,0 20 0,0
13.07.2019 12:00:00 22,6 15,2 9 5 O 1017,4 20 0,0
13.07.2019 11:00:00 21,3 14,5 8 4 ONO 1017,8 20 -
13.07.2019 10:00:00 20,0 14,6 8 4 O 1017,9 20 0,0
13.07.2019 09:00:00 18,1 14,4 8 4 ONO 1018,2 20 0,0
13.07.2019 08:00:00 17,1 14,9 5 3 ONO 1018,2 20 -

tt = temperatuur
td = dauwpunt
ff = windsnelheid
dd = windrichting
ppp = luchtdruk
vv = zicht
rr = neerslag

Weerstations in de omgeving